Overview Statistics Trail Chart Weather Telemetry Raw packets
 

This is the latest recevied weather packets stored in our database for station/object SR6NWB-11. If no packets are shown the sender has not sent any weather packets the latest 10 day(s).

<< 1 2 3 4 >>
Time Temp. Humidity Pressure Rain* Wind** Luminosity Snow
1788615808 15.56° C 67% 1021.6 hPa 0 mm - - -
1788615223 15° C 68% 1021.6 hPa 0 mm - - -
1788614638 15.56° C 68% 1021.7 hPa 0 mm - - -
1788614078 15.56° C 68% 1021.7 hPa 0 mm - - -
1788613548 15.56° C 66% 1021.8 hPa 0 mm - - -
1788613053 15.56° C 68% 1021.7 hPa 0 mm - - -
1788612498 15.56° C 69% 1021.7 hPa 0 mm - - -
1788611943 15.56° C 69% 1021.6 hPa 0 mm - - -
1788611383 15° C 72% 1021.8 hPa 0 mm - - -
1788610828 15° C 73% 1021.9 hPa 0 mm - - -
1788610233 15° C 74% 1022 hPa 0 mm - - -
1788609753 15.56° C 72% 1022 hPa 0 mm - - -
1788609238 15.56° C 72% 1021.9 hPa 0 mm - - -
1788608743 15.56° C 72% 1022 hPa 0 mm - - -
1788608241 15.56° C 71% 1021.9 hPa 0 mm - - -
1788607738 15.56° C 70% 1021.9 hPa 0 mm - - -
1788607153 15° C 72% 1021.8 hPa 0 mm - - -
1788606673 15.56° C 73% 1021.8 hPa 0 mm - - -
1788606183 15° C 75% 1021.8 hPa 0 mm - - -
1788605683 15° C 77% 1021.7 hPa 0 mm - - -
1788605083 15° C 79% 1021.9 hPa 0 mm - - -
1788604583 15° C 79% 1021.7 hPa 0 mm - - -
1788604063 15° C 78% 1021.7 hPa 0 mm - - -
1788603503 15° C 79% 1021.5 hPa 0 mm - - -
1788602928 15° C 81% 1021.6 hPa 0 mm - - -

* Rain latest hour (hover to see other rain measurements)
** Current wind speed in m/s (hover to see current wind gust speed)